CW9804 Weather Reports


Display with metric or nautical units.
time (UTC)temp
F
wind
direction
speed
MPH
gust
MPH
rain 1hr
in
rain 24hr
in
rain mn
in
humidity
%
barometer
mb
20260509160410 73 232 3.0 6.0 0.00 0.00 0.00 50 1015.8
20260509154911 75 279 5.0 8.0 0.00 0.00 0.00 47 1016.0
20260509153411 74 200 1.0 2.0 0.00 0.00 0.00 48 1015.9
20260509151911 73 158 2.0 8.0 0.00 0.00 0.00 47 1015.8
20260509150411 74 232 2.0 4.0 0.00 0.00 0.00 47 1015.8
20260509143410 76 59 4.0 9.0 0.00 0.00 0.00 43 1015.8
20260509141910 75 144 1.0 9.0 0.00 0.00 0.00 46 1015.7
20260509140410 74 180 2.0 8.0 0.00 0.00 0.00 44 1015.6
20260509134911 76 146 1.0 3.0 0.00 0.00 0.00 44 1015.7
20260509133410 76 158 2.0 5.0 0.00 0.00 0.00 45 1015.8
20260509131910 73 165 3.0 7.0 0.00 0.00 0.00 45 1015.9
20260509130410 75 132 1.0 15.0 0.00 0.00 0.00 44 1016.0
20260509124910 76 44 2.0 6.0 0.00 0.00 0.00 44 1016.2
20260509123410 77 190 3.0 11.0 0.00 0.00 0.00 45 1016.3
20260509121910 77 205 3.0 9.0 0.00 0.00 0.00 44 1016.4
20260509120410 76 117 3.0 6.0 0.00 0.00 0.00 45 1016.8
20260509114910 75 117 1.0 7.0 0.00 0.00 0.00 47 1017.0
20260509113410 75 175 4.0 9.0 0.00 0.00 0.00 47 1017.2
20260509111910 75 201 2.0 10.0 0.00 0.00 0.00 48 1017.5
20260509110410 75 211 3.0 6.0 0.00 0.00 0.00 47 1017.6
20260509104910 73 170 4.0 9.0 0.00 0.00 0.00 54 1017.5
20260509101909 72 142 1.0 5.0 0.00 0.00 0.00 51 1017.9
20260509100409 71 58 3.0 5.0 0.00 0.00 0.00 57 1017.9
20260509094912 69 313 3.0 7.0 0.00 0.00 0.00 57 1018.0
20260509093412 68 82 3.0 4.0 0.00 0.00 0.00 60 1017.9
20260509091912 68 64 2.0 7.0 0.00 0.00 0.00 59 1018.0
20260509090412 67 56 4.0 7.0 0.00 0.00 0.00 62 1018.3
20260509084912 67 38 2.0 6.0 0.00 0.00 0.00 63 1018.3
20260509083412 65 53 4.0 7.0 0.00 0.00 0.00 65 1018.1
20260509081911 64 65 3.0 8.0 0.00 0.00 0.00 66 1018.3
20260509080411 63 47 5.0 7.0 0.00 0.00 0.00 67 1018.5
20260509074911 62 74 3.0 7.0 0.00 0.00 0.00 68 1018.5
20260509073411 61 50 3.0 6.0 0.00 0.00 0.00 72 1018.6
20260509071911 60 57 2.0 4.0 0.00 0.00 0.00 73 1018.6
20260509070410 59 52 1.0 3.0 0.00 0.00 0.00 76 1018.7
20260509064910 57 5 0.0 3.0 0.00 0.00 0.00 79 1018.6
20260509063410 56 5 1.0 3.0 0.00 0.00 0.00 82 1018.7
20260509061910 54 355 1.0 3.0 0.00 0.00 0.00 85 1018.6
20260509054910 51 21 0.0 2.0 0.00 0.00 0.00 89 1018.3
20260509053410 50 22 0.0 2.0 0.00 0.00 0.00 90 1018.2
20260509051910 49 286 0.0 1.0 0.00 0.00 0.00 91 1018.2
20260509050415 49 324 0.0 0.0 0.00 0.00 0.00 91 1018.1
20260509044914 48 324 0.0 0.0 0.00 0.00 0.00 91 1017.9
20260509043414 48 324 0.0 0.0 0.00 0.00 0.00 91 1017.8
20260509041914 48 324 0.0 0.0 0.00 0.00 0.00 90 1017.7
20260509040414 48 322 0.0 0.0 0.00 0.00 0.00 91 1017.6
20260509034914 48 322 0.0 0.0 0.00 0.00 0.00 91 1017.6
20260509033414 48 322 0.0 0.0 0.00 0.00 0.00 89 1017.4
20260509031914 48 321 0.0 0.0 0.00 0.00 0.00 89 1017.4
20260509030414 49 321 0.0 0.0 0.00 0.00 0.00 88 1017.5
20260509024914 49 321 0.0 0.0 0.00 0.00 0.00 87 1017.5
20260509023414 50 321 0.0 3.0 0.00 0.00 0.00 85 1017.5
20260509021914 50 171 0.0 0.0 0.00 0.00 0.00 86 1017.6
20260509020413 49 171 0.0 0.0 0.00 0.00 0.00 87 1017.7
20260509014913 50 171 0.0 2.0 0.00 0.00 0.00 85 1017.8
20260509013413 51 171 0.0 0.0 0.00 0.00 0.00 84 1017.7
20260509010413 52 171 0.0 4.0 0.00 0.00 0.00 83 1017.6
20260509004913 52 183 2.0 3.0 0.00 0.00 0.00 83 1017.6
20260509003413 51 209 1.0 2.0 0.00 0.00 0.00 83 1017.8
20260509001913 52 209 1.0 2.0 0.00 0.00 0.00 80 1017.9
20260509000412 54 175 0.0 0.0 0.00 0.00 0.00 79 1018.0
20260508234912 53 175 0.0 0.0 0.00 0.00 0.00 80 1018.1
20260508233412 54 175 0.0 0.0 0.00 0.00 0.00 79 1018.0
20260508231912 54 175 0.0 0.0 0.00 0.00 0.00 78 1018.0
20260508230412 54 175 0.0 0.0 0.00 0.00 0.00 78 1017.9
20260508224912 54 176 0.0 0.0 0.00 0.00 0.00 77 1017.9
20260508223412 54 176 0.0 0.0 0.00 0.00 0.00 78 1017.9
20260508221911 54 176 0.0 0.0 0.00 0.00 0.00 76 1017.8
20260508220411 55 176 0.0 0.0 0.00 0.00 0.00 75 1017.8
20260508214911 56 175 0.0 0.0 0.00 0.00 0.00 74 1017.9
20260508213411 56 175 0.0 2.0 0.00 0.00 0.00 72 1017.9
20260508211911 56 178 0.0 0.0 0.00 0.00 0.00 73 1017.9
20260508204912 57 178 2.0 3.0 0.00 0.00 0.00 71 1017.8
20260508203412 58 167 0.0 0.0 0.00 0.00 0.00 70 1017.8
20260508200411 58 147 0.0 0.0 0.00 0.00 0.00 69 1017.6
20260508194911 59 147 0.0 1.0 0.00 0.00 0.00 68 1017.4
20260508193411 60 147 0.0 0.0 0.00 0.00 0.00 66 1017.2
20260508191911 62 147 2.0 4.0 0.00 0.00 0.00 61 1017.0
20260508181911 65 184 1.0 3.0 0.00 0.00 0.00 59 1016.3
20260508180411 65 183 1.0 2.0 0.00 0.00 0.00 58 1016.1
20260508174911 66 183 1.0 3.0 0.00 0.00 0.00 56 1015.6
20260508173411 67 98 0.0 5.0 0.00 0.00 0.00 55 1015.5
20260508171911 68 71 1.0 3.0 0.00 0.00 0.00 53 1015.2
20260508170411 68 9 3.0 6.0 0.00 0.00 0.00 52 1015.2
20260508164911 69 61 1.0 3.0 0.00 0.00 0.00 51 1015.2
20260508163411 71 56 1.0 3.0 0.00 0.00 0.00 49 1015.2
20260508161911 71 140 0.0 6.0 0.00 0.00 0.00 48 1015.1